Location: Usti nad Labem
(50.6670°N, 14.0330°E)
Time: 01:46:16
(UTC+01:00)

ISS - Visible Passes

Search period start: 06 December 2023 00:00
Search period end: 16 December 2023 00:00
Orbit: 415 x 417 km, 51.6° (Epoch: 05 December)

Date Brightness Start Highest point End Pass type
(mag) Time Alt. Az. Time Alt. Az. Time Alt. Az.
06 Dec -0.6 17:29:33 10° WSW 17:31:28 14° SW 17:33:22 10° S visible
07 Dec -0.9 16:40:30 10° W 16:43:07 21° SW 16:45:43 10° SSE visible
15 Dec -0.5 07:00:22 10° S 07:02:10 14° SE 07:03:59 10° ESE visible
